Simultaneous Nadir Overpasses (SNOs) Predictions

Prediction of SNOs between LANDSAT-8 and NOAA-19 Satellite Orbit:

Table of predicted SNOs for the next 14.0 days since TLE Epoch: 12/3/2022
Index Date (LANDSAT-8) Time (LANDSAT-8) Lat,Lon (LANDSAT-8) SZA (LANDSAT-8 ) Date (NOAA-19) Time (NOAA-19) Lat,Lon (NOAA-19) SZA (NOAA-19 ) Distance(km) Time Diff (sec)
1 12/03/2022 10:31:22 80.89, 58.83 104.93 12/03/2022 10:30:54 80.90, 58.79 104.92 1.07 28
2 12/03/2022 11:20:49 -80.89,-133.61 75.09 12/03/2022 11:21:54 -80.89,-133.52 75.04 1.88 65
3 12/05/2022 16:54:32 80.90, -36.85 105.22 12/05/2022 16:54:39 80.90, -36.78 105.23 1.34 7
4 12/07/2022 22:28:15 -80.90, 59.70 74.55 12/07/2022 22:27:28 -80.90, 59.52 74.59 3.20 47
5 12/07/2022 23:17:41 80.90,-132.60 105.46 12/07/2022 23:18:24 80.90,-132.77 105.46 3.12 43
6 12/10/2022 04:51:25 -80.90, -36.08 74.35 12/10/2022 04:51:13 -80.90, -35.93 74.34 2.73 12
7 12/12/2022 10:25:08 80.90, 60.44 105.80 12/12/2022 10:23:57 80.90, 60.43 105.78 0.71 71
8 12/12/2022 11:14:35 -80.90,-131.92 74.20 12/12/2022 11:14:59 -80.90,-131.79 74.18 2.26 24
9 12/14/2022 16:48:17 80.91, -35.13 105.96 12/14/2022 16:47:42 80.90, -35.29 105.92 2.97 35
10 12/14/2022 17:37:45 -80.89, 132.17 74.10 12/14/2022 17:38:45 -80.90, 132.29 74.05 2.26 60



Historial Predications of SNOs between LANDSAT-8 and NOAA-19
